Terug naar catalogus

BREEZE-M DEB

LostHEO
NORAD 35539·DEBRIS·🇷🇺 Russia

Gelanceerd Feb 28, 2006 vanaf Baikonur Cosmodrome

Loading…

Volgende Passages (komende 24 uur)

TLE

VerouderdSource: Space-Track

Epoch: Jun 26, 2010, 19:38 UTC

1 35539U 06006CG  10177.81856513  .00063014  00000-0  23288-1 0  9998
2 35539  51.6822 359.2185 4991758 173.0990 197.9710  5.56242729 41401

Volg BREEZE-M DEB in realtime met AllMySat

Download on the App Store